Temperature
23 20 20 20 20 20 20 20 20 20 20 20 20 20 20 21 21 22 23 24 25 26 26 26 26 26 25 25 24 24 23 22 22 21 21 20 20 20 19 19 19 19 18 18
20 20 21 22 21 21 21 20 20 20 20 21 19 20 20 20 21 22 23 23 25 25 26 26 26 26 25 25 24 24 23 23 22 21 21 21 20 20 19 19 19 18 18 18
21 21 22 23 22 21 21 20 20 19 19 20 19 18 19 20 21 22 22 23 24 25 25 26 26 26 25 25 24 24 23 22 22 21 21 20 19 19 19 19 18 18 18 18
21 22 22 22 22 21 20 20 20 19 18 17 18 16 17 18 18 19 20 22 23 25 25 25 25 25 25 24 24 23 23 22 22 21 20 20 20 19 19 19 18 18 17 17
21 22 22 21 22 22 20 20 19 19 17 16 17 16 16 16 17 18 19 20 22 24 24 24 24 24 23 23 23 22 22 22 21 21 20 20 19 19 18 18 18 18 17 17
21 22 22 21 22 22 20 19 18 16 15 16 16 16 16 15 16 16 17 18 19 21 22 22 22 22 22 22 22 22 22 21 21 21 20 20 19 19 18 18 18 18 17 17
19 20 21 21 20 20 19 17 16 16 15 15 17 17 15 15 16 16 16 16 17 19 20 21 21 22 22 22 22 21 21 21 21 21 20 19 19 18 18 18 18 17 17 17
17 17 19 20 20 19 18 17 16 16 15 16 17 16 15 16 16 16 16 16 16 17 18 19 20 21 22 22 22 22 22 22 21 20 20 19 19 18 18 18 17 17 17 17
16 17 19 20 19 19 17 16 16 15 16 16 16 16 15 16 15 16 16 15 15 16 17 17 18 19 21 21 21 22 21 21 21 20 19 19 18 18 18 17 17 17 17 16
17 16 16 18 18 17 16 15 13 14 15 15 15 15 14 14 14 15 15 15 15 16 16 17 18 18 20 20 21 21 21 21 20 20 19 19 18 18 18 17 17 17 17 16
15 14 14 15 15 15 14 14 13 13 13 14 14 14 14 13 14 14 15 15 15 16 16 17 18 18 19 20 20 20 20 20 20 20 19 19 18 18 18 18 17 17 17 16
15 12 12 14 15 16 15 13 12 12 13 13 13 13 13 13 14 14 14 15 16 16 17 17 18 19 19 20 20 20 20 20 20 19 19 18 18 18 18 18 17 17 16 16
15 12 11 12 13 14 14 13 13 12 12 12 13 13 13 13 14 14 14 15 15 16 17 18 19 19 19 20 20 20 20 20 20 19 19 18 18 18 18 18 17 17 16 16
15 12 12 12 12 12 12 12 13 12 12 12 13 12 13 13 13 14 14 14 15 15 15 17 18 19 19 19 19 19 19 19 19 19 19 18 18 18 17 17 17 17 16 16
13 13 14 13 12 12 11 11 12 12 12 12 12 12 12 12 13 13 14 14 14 14 15 16 17 18 18 19 19 19 19 19 18 18 18 17 17 17 17 17 17 16 16 16
12 13 13 12 12 12 11 10 11 11 11 12 12 11 12 12 13 13 13 13 13 14 14 15 16 17 17 17 18 18 18 18 18 17 17 17 16 16 16 16 16 16 16 16
12 12 11 11 12 12 10 9 9 10 10 11 10 10 11 12 12 13 13 13 13 14 14 15 15 16 16 16 17 17 17 17 17 17 16 16 16 16 16 16 16 16 15 15
12 11 10 10 11 10 9 10 9 10 10 10 10 11 11 11 12 13 13 13 13 14 15 15 15 15 15 15 16 16 16 16 15 15 15 15 15 15 15 15 15 15 15 15
11 11 10 9 10 10 10 11 10 9 10 10 10 10 10 11 12 13 13 13 14 14 15 15 15 15 15 15 15 15 15 15 15 14 14 14 14 14 14 14 14 14 14 14
11 10 9 9 10 9 10 11 10 10 10 10 9 10 10 10 10 11 13 14 14 15 15 15 15 15 15 15 14 14 14 14 13 13 13 13 13 13 13 13 13 13 13 13
10 9 8 9 9 9 10 11 11 10 9 10 10 10 10 10 10 11 13 14 14 15 15 15 15 15 15 14 14 14 13 13 13 12 12 12 12 12 12 12 12 12 12 12
10 9 9 8 9 9 11 11 10 9 11 10 11 11 11 11 12 12 13 14 15 15 15 15 15 15 14 14 14 14 13 13 12 12 12 12 12 12 12 12 12 12 12 12
10 10 9 9 9 11 12 11 11 11 11 11 11 11 11 11 12 13 14 14 15 15 15 15 15 15 15 14 14 14 13 13 13 12 12 12 12 12 11 11 11 12 12 12
11 11 9 10 10 11 11 11 11 11 11 11 11 12 12 12 12 13 14 14 15 15 15 15 15 15 15 15 14 14 13 13 13 12 12 12 11 11 11 11 11 11 12 12
10 11 9 9 11 11 12 12 12 12 12 12 12 12 12 12 12 13 13 14 15 15 16 16 15 15 15 15 14 14 13 13 12 12 12 12 11 11 11 11 11 11 11 11
11 10 9 9 11 11 12 12 12 12 12 12 12 12 12 12 12 13 14 14 15 15 15 16 16 15 15 15 15 14 14 13 13 12 12 12 11 11 11 11 11 11 10 10
Wind_Speed
1 3 1 3 4 4 3 3 5 5 3 3 5 8 9 7 5 6 7 8 8 8 9 8 12 17 18 16 16 15 13 13 11 8 8 6 6 5 5 5 7 8 8 8
4 1 6 6 5 3 2 3 4 5 4 4 6 10 10 8 7 7 8 9 10 9 7 6 8 13 17 17 15 15 13 13 12 9 7 5 4 3 4 4 5 7 7 7
4 6 5 4 3 3 3 4 5 5 4 4 5 8 7 6 5 7 8 9 9 9 8 6 7 11 13 13 14 13 11 11 10 9 7 5 4 3 2 3 4 6 7 7
4 4 3 4 5 5 5 6 4 2 2 4 2 6 9 7 10 10 10 8 7 7 6 7 10 10 11 10 10 10 10 10 10 10 9 8 6 5 6 4 5 5 5 6
5 3 3 5 7 6 7 4 3 2 1 3 2 3 8 8 11 14 14 13 8 5 7 10 12 14 13 12 11 10 10 9 9 8 9 8 5 4 3 3 4 5 5 5
6 4 1 3 5 0 2 4 4 4 4 2 4 4 5 7 12 16 18 18 15 7 4 9 11 14 12 11 10 9 9 8 8 8 8 8 7 6 4 4 4 4 3 4
9 8 6 7 9 8 6 5 4 5 3 5 4 2 2 7 12 14 16 18 18 12 5 7 10 11 12 11 10 8 9 8 7 7 6 6 7 6 6 5 5 4 2 3
8 8 8 9 6 5 5 3 4 4 4 4 3 1 2 7 10 13 15 15 18 18 13 7 4 7 10 12 11 11 10 8 7 6 5 5 5 4 3 5 4 4 3 3
5 7 8 10 8 6 6 3 2 3 3 3 4 1 3 12 16 17 17 18 19 16 14 11 7 3 3 6 8 9 9 7 6 5 4 4 5 5 4 4 3 3 2 2
3 5 6 8 8 9 5 3 4 3 1 3 2 3 7 14 17 17 16 16 16 14 12 10 6 4 3 2 4 7 7 7 6 6 5 5 6 6 6 5 4 4 3 2
5 2 8 8 6 6 6 5 3 1 1 1 0 2 6 11 13 13 13 13 12 11 9 6 4 6 6 4 2 4 6 6 6 6 5 6 6 6 6 5 5 4 3 4
4 3 4 6 4 3 3 2 2 1 0 0 1 1 7 11 11 11 11 11 12 11 9 7 4 5 7 5 3 5 6 6 6 5 5 6 6 5 5 5 5 5 5 4
4 5 5 9 8 6 4 5 3 2 2 1 2 1 6 10 12 12 12 11 11 11 10 8 5 6 7 5 4 5 5 6 6 5 6 5 4 4 5 5 5 5 5 5
4 3 1 3 6 4 5 10 9 1 1 2 3 4 11 15 15 15 13 11 10 11 11 9 6 5 5 5 4 4 5 5 5 5 5 4 3 3 4 4 4 5 5 6
4 2 3 3 8 10 14 15 15 9 6 4 6 8 13 15 13 13 14 14 14 14 14 12 10 8 7 7 6 4 1 1 3 3 3 1 1 2 3 4 4 5 5 6
5 3 4 4 8 13 16 19 16 12 10 9 9 9 14 14 11 12 15 16 16 14 13 12 11 10 10 9 9 8 7 5 6 6 4 2 1 1 3 3 3 3 4 4
5 3 3 3 2 4 10 12 11 8 11 9 9 9 15 16 15 12 13 15 14 13 12 12 10 10 10 9 9 10 9 10 10 8 5 4 3 2 3 2 1 1 2 2
2 2 2 2 5 6 3 5 5 5 8 10 9 11 14 15 13 7 9 13 13 11 10 10 8 8 7 7 9 9 9 9 9 8 7 6 5 4 4 4 4 3 1 1
5 4 4 3 3 2 3 4 3 3 3 7 10 13 15 16 8 6 12 14 11 9 6 6 5 5 7 7 7 8 8 8 8 7 6 6 5 5 5 5 5 3 2 2
8 7 5 4 3 1 4 6 3 2 2 5 8 11 13 13 9 9 17 17 13 9 5 4 5 6 6 5 6 8 7 7 6 5 5 5 5 5 5 5 4 3 2 2
6 6 6 4 2 1 5 6 3 2 4 9 7 8 8 6 5 12 17 14 10 7 4 3 4 4 3 3 5 6 6 5 4 4 5 5 5 5 4 4 4 4 4 4
2 2 2 2 2 3 4 2 2 4 5 6 7 7 8 9 11 12 13 12 11 7 4 2 2 1 1 1 4 4 5 4 3 3 5 5 6 6 5 6 6 6 6 5
3 5 4 4 4 5 2 2 4 4 5 5 6 8 9 9 10 11 11 12 9 7 5 3 1 1 2 1 1 3 4 4 3 4 4 4 5 6 6 7 7 6 7 6
2 3 3 1 3 3 3 2 3 4 5 7 8 9 8 8 10 11 11 11 9 7 6 3 1 1 2 2 1 1 3 4 5 4 3 3 4 5 6 6 6 7 7 7
6 4 3 2 3 2 3 3 5 6 7 8 8 7 7 8 9 8 9 10 9 7 6 4 2 2 3 3 2 1 2 4 5 3 2 2 2 3 4 5 6 6 6 5
6 7 7 6 7 5 5 6 5 5 6 7 7 7 8 7 8 8 9 8 8 8 6 5 4 3 4 4 4 2 1 4 4 2 1 1 1 1 2 2 3 7 6 9
Wind_Direction
185 87 212 222 190 192 203 244 273 269 285 320 292 287 288 292 305 307 310 307 289 259 250 226 195 184 181 180 181 179 174 173 165 164 165 167 181 186 190 195 193 193 192 190
38 255 225 205 188 179 200 263 274 275 293 302 284 281 274 261 248 251 270 278 280 274 268 250 191 178 178 178 179 177 175 170 167 168 166 163 156 171 190 195 194 199 196 194
213 241 227 203 223 238 248 235 246 265 317 335 323 305 297 294 293 285 267 254 258 255 238 212 176 169 164 167 170 170 162 154 151 147 131 114 98 94 144 204 211 210 202 198
267 253 228 228 241 213 247 232 210 236 2 304 360 300 300 320 332 331 319 286 251 243 217 169 147 137 134 132 131 133 132 134 138 142 150 154 164 177 198 199 209 215 205 199
289 264 245 250 247 210 217 211 175 178 174 304 287 230 297 348 348 343 344 339 319 256 180 151 139 128 120 118 116 119 120 124 133 139 150 153 157 176 181 187 204 214 213 207
282 299 10 301 305 61 120 61 43 54 77 302 253 200 314 1 346 347 355 357 356 353 123 128 122 118 114 113 115 119 123 130 138 140 147 156 164 171 176 195 209 215 208 205
340 346 18 20 13 4 23 65 13 346 356 257 260 174 37 3 7 3 2 3 2 11 50 107 119 123 124 125 128 137 144 145 149 147 158 171 176 178 191 202 205 202 203 208
12 328 359 11 8 312 302 155 185 232 238 282 313 205 106 1 0 6 11 12 17 17 16 27 90 120 135 144 151 158 157 156 158 160 176 188 183 174 191 201 191 191 198 210
5 303 338 8 10 6 347 348 238 190 228 254 282 0 47 360 1 4 7 11 13 9 11 13 14 33 144 154 158 161 158 157 165 166 169 180 170 165 171 169 165 173 184 184
43 304 320 351 21 25 25 7 38 63 229 245 309 37 359 347 343 346 355 360 356 355 1 2 359 325 287 208 179 167 162 169 169 161 158 160 163 164 161 150 156 159 159 143
53 18 328 358 12 3 19 28 29 93 132 187 323 51 353 328 323 328 340 342 339 340 334 324 325 301 294 289 228 194 175 174 173 168 163 158 163 162 155 156 169 167 162 159
15 83 330 314 318 12 58 48 62 106 1 49 131 41 333 318 318 327 331 334 337 329 316 298 267 260 270 272 249 215 194 185 184 168 163 173 170 163 166 174 182 180 176 178
19 64 2 342 341 355 25 7 350 180 156 154 143 64 334 330 341 348 346 346 348 352 341 322 304 268 265 276 265 234 209 199 184 169 167 179 173 172 189 195 197 195 190 192
74 77 104 309 311 343 18 12 8 39 128 109 84 51 1 358 357 359 3 5 9 10 9 0 342 315 299 317 312 260 222 204 180 170 165 170 165 200 218 221 212 206 201 200
65 26 343 52 72 70 48 30 24 34 31 74 77 45 8 355 354 3 15 21 25 22 20 20 18 16 19 19 14 3 351 139 151 132 109 88 97 239 237 229 224 221 213 212
28 7 8 68 93 72 46 25 21 26 31 47 49 29 354 348 357 12 14 17 20 16 18 21 26 31 33 34 38 42 46 57 86 87 75 77 87 285 269 255 245 237 236 230
352 8 31 12 15 55 32 4 7 22 31 26 28 355 341 346 352 2 8 8 12 11 13 18 24 31 37 40 48 49 49 55 64 71 69 54 51 20 336 319 328 286 265 243
356 23 81 40 41 55 313 285 323 355 42 27 6 349 346 337 319 325 7 2 357 2 10 15 24 38 45 53 57 55 52 57 60 58 52 42 41 30 13 15 6 349 328 274
57 79 68 63 75 90 326 330 335 334 2 14 353 346 347 341 338 345 352 350 343 348 360 14 31 52 51 49 54 60 54 54 54 46 40 32 33 33 26 16 358 343 334 317
40 56 70 58 81 54 297 306 302 214 300 356 341 337 341 354 12 333 328 331 333 341 354 21 36 51 52 42 53 56 45 44 41 36 35 30 34 38 23 5 349 338 330 315
15 23 43 54 82 280 273 303 350 64 302 311 309 311 323 331 281 288 309 318 322 327 339 25 52 54 41 45 60 50 31 13 356 24 38 34 30 29 19 5 358 353 358 8
99 63 33 59 48 283 295 17 39 255 269 284 289 293 300 298 297 307 316 321 324 323 322 351 41 23 353 52 68 42 5 337 356 41 46 37 28 24 23 19 14 14 19 25
153 178 181 179 210 232 217 198 236 238 270 278 280 290 296 301 307 316 318 322 318 314 307 303 271 277 313 340 78 29 338 350 45 66 59 44 37 33 30 31 25 21 20 23
241 158 122 136 230 208 201 250 273 267 267 275 280 288 294 299 306 315 321 327 326 320 313 308 308 263 273 290 277 334 349 35 76 82 76 54 51 43 37 36 31 32 23 19
205 156 141 200 231 210 284 284 283 291 290 290 294 292 295 303 310 313 321 327 328 323 315 309 284 242 228 218 231 298 51 80 87 87 76 58 63 72 59 52 40 34 30 21
194 168 169 205 212 191 243 262 278 294 302 306 312 315 317 316 314 320 323 324 327 323 320 314 295 257 224 208 220 238 116 115 113 95 65 15 56 100 113 94 62 37 36 35
Height
1496 1502 1506 1505 1503 1504 1506 1508 1509 1503 1496 1496 1496 1493 1485 1480 1479 1477 1477 1477 1475 1474 1475 1476 1477 1479 1482 1486 1490 1492 1495 1498 1501 1503 1506 1508 1510 1512 1514 1516 1518 1520 1521 1522
1501 1504 1498 1496 1497 1499 1502 1507 1507 1501 1495 1495 1495 1491 1482 1478 1476 1475 1474 1473 1473 1471 1471 1472 1473 1475 1478 1481 1486 1489 1492 1494 1497 1500 1503 1506 1508 1510 1512 1513 1515 1517 1518 1519
1503 1499 1493 1494 1497 1499 1501 1504 1504 1503 1498 1495 1497 1495 1485 1477 1475 1474 1471 1469 1469 1467 1467 1468 1469 1471 1474 1478 1482 1486 1489 1492 1496 1499 1501 1504 1506 1507 1509 1510 1511 1513 1514 1516
1498 1493 1493 1495 1496 1496 1504 1495 1496 1499 1505 1510 1505 1514 1494 1485 1480 1474 1470 1466 1463 1462 1463 1464 1465 1468 1472 1477 1481 1485 1488 1491 1494 1497 1499 1501 1503 1504 1505 1506 1508 1510 1511 1512
1500 1494 1494 1496 1493 1490 1494 1491 1494 1498 1505 1511 1507 1513 1503 1491 1488 1480 1474 1467 1462 1459 1459 1461 1463 1466 1472 1477 1482 1486 1489 1491 1493 1496 1497 1499 1500 1502 1503 1504 1505 1506 1507 1508
1497 1492 1493 1494 1488 1487 1490 1494 1498 1504 1511 1520 1509 1513 1511 1504 1499 1488 1479 1471 1464 1459 1459 1461 1463 1466 1472 1478 1482 1486 1488 1490 1492 1494 1495 1496 1498 1499 1500 1501 1502 1503 1504 1505
1506 1498 1495 1494 1495 1493 1495 1507 1521 1522 1526 1521 1504 1507 1513 1505 1499 1493 1485 1477 1469 1463 1462 1463 1465 1468 1472 1477 1481 1485 1488 1489 1490 1492 1493 1495 1496 1497 1499 1500 1501 1501 1502 1503
1522 1518 1504 1500 1502 1503 1501 1505 1521 1528 1528 1518 1505 1509 1510 1503 1499 1493 1486 1480 1473 1469 1468 1468 1468 1469 1472 1476 1479 1483 1485 1487 1489 1490 1492 1493 1495 1496 1497 1498 1499 1499 1500 1500
1524 1520 1506 1503 1502 1502 1505 1507 1506 1515 1515 1519 1513 1508 1505 1501 1497 1492 1488 1482 1478 1476 1474 1473 1473 1473 1475 1477 1479 1481 1484 1486 1488 1490 1491 1493 1494 1495 1496 1497 1497 1498 1498 1498
1519 1524 1514 1508 1505 1506 1509 1510 1515 1519 1522 1524 1517 1515 1518 1509 1503 1496 1491 1487 1483 1479 1477 1477 1477 1478 1478 1480 1481 1483 1485 1486 1488 1489 1491 1493 1494 1495 1495 1496 1496 1496 1496 1497
1520 1527 1524 1517 1517 1518 1515 1517 1518 1520 1520 1524 1526 1525 1518 1514 1508 1502 1496 1491 1485 1481 1479 1478 1479 1480 1480 1481 1482 1484 1485 1486 1488 1489 1491 1492 1493 1494 1495 1495 1495 1495 1495 1495
1521 1530 1533 1526 1517 1514 1515 1518 1521 1525 1525 1522 1525 1530 1517 1514 1508 1503 1498 1492 1487 1482 1480 1478 1477 1478 1480 1480 1482 1483 1485 1486 1488 1490 1491 1492 1493 1493 1494 1494 1494 1494 1494 1495
1523 1533 1541 1535 1530 1522 1520 1520 1519 1521 1524 1524 1526 1530 1517 1514 1507 1503 1498 1493 1489 1484 1480 1478 1477 1477 1478 1479 1481 1482 1484 1486 1488 1489 1490 1491 1492 1493 1494 1494 1494 1494 1494 1494
1523 1533 1539 1544 1538 1529 1529 1525 1520 1519 1523 1523 1525 1526 1522 1516 1510 1505 1500 1496 1492 1487 1482 1479 1477 1477 1477 1478 1479 1480 1482 1484 1486 1488 1489 1490 1491 1493 1494 1494 1494 1493 1493 1493
1526 1534 1531 1532 1532 1532 1533 1530 1526 1523 1521 1523 1526 1527 1526 1520 1515 1510 1504 1499 1494 1490 1486 1482 1480 1478 1478 1478 1479 1480 1481 1482 1485 1487 1487 1489 1490 1492 1492 1492 1492 1492 1491 1491
1530 1534 1533 1536 1535 1534 1536 1536 1532 1530 1528 1527 1527 1530 1527 1522 1517 1512 1507 1503 1498 1494 1491 1488 1485 1483 1481 1481 1481 1480 1481 1482 1483 1485 1485 1486 1487 1488 1489 1489 1490 1489 1489 1489
1534 1536 1538 1542 1536 1535 1544 1546 1543 1540 1538 1535 1537 1538 1531 1524 1519 1515 1512 1507 1503 1499 1495 1492 1490 1488 1487 1485 1484 1483 1483 1482 1483 1483 1484 1485 1486 1486 1486 1486 1486 1486 1486 1486
1535 1536 1542 1544 1542 1550 1555 1547 1547 1544 1542 1542 1540 1537 1532 1527 1521 1517 1514 1510 1506 1503 1500 1497 1495 1494 1492 1490 1489 1487 1486 1485 1484 1484 1484 1484 1483 1482 1482 1482 1482 1482 1481 1482
1534 1537 1544 1548 1550 1552 1550 1546 1546 1546 1544 1543 1541 1537 1532 1526 1520 1516 1514 1511 1509 1506 1504 1502 1500 1498 1496 1493 1492 1490 1488 1486 1485 1484 1483 1483 1482 1481 1480 1479 1478 1477 1477 1478
1538 1540 1547 1551 1553 1556 1554 1546 1544 1547 1545 1543 1541 1538 1533 1529 1526 1523 1516 1513 1510 1508 1506 1504 1503 1500 1498 1496 1494 1492 1490 1488 1486 1485 1484 1483 1481 1480 1478 1476 1475 1474 1474 1474
1548 1550 1554 1555 1556 1555 1549 1545 1544 1550 1551 1543 1540 1537 1535 1532 1531 1525 1518 1515 1512 1510 1508 1506 1504 1502 1500 1499 1496 1494 1492 1490 1489 1487 1485 1483 1481 1479 1477 1475 1473 1472 1471 1471
1552 1555 1556 1557 1559 1559 1547 1545 1548 1549 1544 1541 1539 1536 1533 1531 1526 1522 1518 1515 1512 1510 1508 1507 1505 1503 1502 1500 1498 1496 1493 1492 1490 1489 1486 1484 1482 1479 1477 1475 1473 1472 1471 1470
1549 1550 1552 1554 1555 1548 1546 1546 1545 1544 1542 1540 1538 1535 1532 1529 1525 1521 1518 1515 1512 1510 1508 1507 1506 1505 1503 1502 1500 1497 1495 1493 1492 1490 1488 1486 1484 1481 1479 1477 1475 1473 1472 1471
1546 1544 1547 1548 1547 1546 1545 1545 1543 1542 1540 1538 1536 1533 1531 1528 1524 1521 1517 1514 1512 1510 1508 1507 1506 1505 1504 1503 1501 1499 1497 1495 1493 1492 1490 1488 1486 1484 1482 1479 1477 1476 1474 1472
1542 1543 1545 1546 1545 1544 1543 1543 1542 1540 1538 1536 1534 1532 1529 1526 1523 1520 1517 1514 1511 1509 1508 1507 1506 1505 1504 1503 1502 1500 1498 1496 1495 1493 1491 1490 1488 1486 1484 1482 1480 1478 1476 1475
1536 1539 1543 1544 1541 1542 1542 1541 1540 1538 1537 1535 1533 1530 1528 1526 1522 1519 1516 1514 1511 1509 1507 1506 1505 1505 1504 1503 1502 1501 1499 1497 1495 1494 1492 1491 1489 1487 1486 1484 1482 1480 1478 1477